Weather History for Craig, CO

Change the Weather History Date:

Tuesday, May 15, 2012

  Actual Average Record
Temperature  
Mean Temperature 56 °F 50 °F  
Max Temperature 83 °F 67 °F 83 °F (2012)
Min Temperature 29 °F 34 °F 29 °F (2012)
Degree Days  
Heating Degree Days 9 15  
Month to date heating degree days 195 251  
Since 1 July heating degree days 7217 8263  
Cooling Degree Days 0 0  
Month to date cooling degree days 0 0  
Year to date cooling degree days 0 0  
Growing Degree Days 5 (Base 50)    
Moisture  
Dew Point 23 °F    
Average Humidity 39    
Maximum Humidity 69    
Minimum Humidity 8    
Precipitation  
Precipitation 0.00 in 0.05 in 0.54 in (2003)
Month to date precipitation 0.03 0.81  
Year to date precipitation 1.31 5.46  
Sea Level Pressure  
Sea Level Pressure 30.04 in    
Wind  
Wind Speed 3 mph (NNE)    
Max Wind Speed 12 mph    
Max Gust Speed 16 mph    
Visibility 10 miles    
Events      
T = Trace of Precipitation, MM = Missing Value Source: NWS Daily Summary

Daily Weather History Graph

Daily Weather History Graph

Search for Another Location

Airport:

Trip Planner

Search our weather history database for the weather conditions in past years. The results will help you decide how hot, cold, wet, or windy it might be!

Date:

Astronomy

May. 15, 2012 Rise Set
Actual Time 5:53 AM MDT 8:20 PM MDT
Civil Twilight 5:22 AM MDT 8:51 PM MDT
Nautical Twilight 4:43 AM MDT 9:30 PM MDT
Astronomical Twilight 4:00 AM MDT 10:13 PM MDT
Moon 2:57 AM MDT (5/15) 3:40 PM MDT (5/15)
Length of Visible Light 15h 29m
Length of Day
14h 27m
Waning Crescent, 23% of the Moon is Illuminated
May 15
Waning Crescent
May 20
New
May 28
First Quarter
Jun 4
Full
Jun 11
Last Quarter

Hourly Weather History & Observations

Time (MDT) Temp. Dew Point Humidity Pressure Visibility Wind Dir Wind Speed Gust Speed Precip Events Conditions
12:53 AM 39.0 °F 24.1 °F 55% 30.13 in 10.0 mi Calm Calm - N/A   Clear
1:53 AM 39.0 °F 24.1 °F 55% 30.12 in 10.0 mi Calm Calm - N/A   Clear
2:53 AM 36.0 °F 25.0 °F 64% 30.12 in 10.0 mi Calm Calm - N/A   Clear
3:53 AM 32.0 °F 23.0 °F 69% 30.12 in 10.0 mi Calm Calm - N/A   Clear
4:53 AM 32.0 °F 21.9 °F 66% 30.13 in 10.0 mi Calm Calm - N/A   Clear
5:53 AM 30.0 °F 21.9 °F 72% 30.16 in 10.0 mi Calm Calm - N/A   Clear
6:53 AM 37.0 °F 26.1 °F 65% 30.15 in 10.0 mi Calm Calm - N/A   Clear
7:53 AM 48.0 °F 28.9 °F 48% 30.12 in 10.0 mi Calm Calm - N/A   Clear
8:53 AM 60.1 °F 26.1 °F 27% 30.14 in 10.0 mi ENE 9.2 mph - N/A   Clear
9:53 AM 68.0 °F 25.0 °F 20% 30.12 in 10.0 mi ENE 6.9 mph - N/A   Clear
10:53 AM 73.0 °F 23.0 °F 15% 30.09 in 10.0 mi North 3.5 mph - N/A   Clear
11:53 AM 75.9 °F 12.9 °F 9% 30.07 in 10.0 mi North 3.5 mph - N/A   Clear
12:53 PM 79.0 °F 18.0 °F 10% 30.04 in 10.0 mi WSW 9.2 mph - N/A   Clear
1:53 PM 80.1 °F 17.1 °F 9% 30.01 in 10.0 mi Variable 5.8 mph - N/A   Clear
2:53 PM 81.0 °F 16.0 °F 9% 29.99 in 10.0 mi Variable 3.5 mph - N/A   Clear
3:53 PM 82.9 °F 16.0 °F 8% 29.98 in 10.0 mi North 8.1 mph - N/A   Clear
4:53 PM 82.0 °F 17.1 °F 9% 29.96 in 10.0 mi Variable 5.8 mph - N/A   Clear
5:53 PM 80.1 °F 16.0 °F 9% 29.96 in 10.0 mi NNE 5.8 mph - N/A   Clear
6:53 PM 79.0 °F 16.0 °F 9% 29.93 in 10.0 mi NNE 3.5 mph - N/A   Clear
7:53 PM 71.1 °F 32.0 °F 24% 29.92 in 10.0 mi Calm Calm - N/A   Clear
8:53 PM 61.0 °F 27.0 °F 27% 29.93 in 10.0 mi Calm Calm - N/A   Clear
9:53 PM 54.0 °F 36.0 °F 51% 29.95 in 10.0 mi Calm Calm - N/A   Clear
10:53 PM 51.1 °F 30.9 °F 46% 29.96 in 10.0 mi East 4.6 mph - N/A   Clear
11:53 PM 50.0 °F 32.0 °F 50% 29.96 in 10.0 mi Calm Calm - N/A   Clear